| time (UTC) | temp F | wind direction | speed MPH | gust MPH | rain 1hr in | rain 24hr in | rain mn in | humidity % | barometer mb |
| 20260506193711 | 55 | 29 | 2.0 | 10.0 | 0.00 | 0.00 | 0.00 | 66 | 1012.0 |
| 20260506193207 | 55 | 0 | 3.0 | 10.0 | 0.00 | 0.00 | 0.00 | 66 | 1012.0 |
| 20260506192712 | 55 | 76 | 5.0 | 10.0 | 0.00 | 0.00 | 0.00 | 66 | 1011.9 |
| 20260506192208 | 55 | 49 | 4.0 | 10.0 | 0.00 | 0.00 | 0.00 | 66 | 1011.9 |
| 20260506191717 | 55 | 56 | 3.0 | 9.0 | 0.00 | 0.00 | 0.00 | 67 | 1011.7 |
| 20260506191211 | 56 | 44 | 3.0 | 9.0 | 0.00 | 0.00 | 0.00 | 68 | 1011.7 |
| 20260506190735 | 56 | 21 | 2.0 | 9.0 | 0.00 | 0.00 | 0.00 | 67 | 1011.7 |
| 20260506190206 | 56 | 16 | 2.0 | 9.0 | 0.00 | 0.00 | 0.00 | 67 | 1011.6 |
| 20260506185706 | 56 | 28 | 2.0 | 9.0 | 0.00 | 0.00 | 0.00 | 65 | 1011.6 |
| 20260506185206 | 56 | 32 | 1.0 | 5.0 | 0.00 | 0.00 | 0.00 | 64 | 1011.4 |
| 20260506184713 | 56 | 27 | 2.0 | 7.0 | 0.00 | 0.00 | 0.00 | 64 | 1011.4 |
| 20260506184219 | 56 | 42 | 2.0 | 7.0 | 0.00 | 0.00 | 0.00 | 65 | 1011.3 |
| 20260506183710 | 56 | 39 | 2.0 | 7.0 | 0.00 | 0.00 | 0.00 | 65 | 1011.3 |
| 20260506183218 | 56 | 28 | 2.0 | 8.0 | 0.00 | 0.00 | 0.00 | 66 | 1011.2 |
| 20260506182710 | 55 | 55 | 2.0 | 8.0 | 0.00 | 0.00 | 0.00 | 67 | 1011.1 |
| 20260506182215 | 55 | 334 | 2.0 | 8.0 | 0.00 | 0.00 | 0.00 | 69 | 1011.0 |
| 20260506181717 | 55 | 5 | 2.0 | 10.0 | 0.00 | 0.00 | 0.00 | 70 | 1011.0 |
| 20260506180711 | 55 | 345 | 4.0 | 10.0 | 0.00 | 0.00 | 0.00 | 71 | 1010.9 |
| 20260506180212 | 55 | 40 | 4.0 | 10.0 | 0.00 | 0.00 | 0.00 | 71 | 1010.8 |
| 20260506175717 | 55 | 11 | 5.0 | 12.0 | 0.00 | 0.00 | 0.00 | 71 | 1010.8 |
| 20260506175212 | 55 | 335 | 5.0 | 12.0 | 0.00 | 0.00 | 0.00 | 72 | 1010.7 |
| 20260506174712 | 55 | 15 | 4.0 | 12.0 | 0.00 | 0.00 | 0.00 | 72 | 1010.7 |
| 20260506174218 | 55 | 30 | 5.0 | 11.0 | 0.00 | 0.00 | 0.00 | 72 | 1010.6 |
| 20260506173209 | 55 | 342 | 5.0 | 12.0 | 0.00 | 0.00 | 0.00 | 73 | 1010.5 |
| 20260506172211 | 55 | 336 | 5.0 | 13.0 | 0.00 | 0.00 | 0.00 | 73 | 1010.5 |
| 20260506171712 | 55 | 5 | 6.0 | 14.0 | 0.00 | 0.00 | 0.00 | 73 | 1010.5 |
| 20260506170707 | 55 | 334 | 6.0 | 15.0 | 0.00 | 0.00 | 0.00 | 73 | 1010.4 |
| 20260506165705 | 55 | 336 | 6.0 | 12.0 | 0.00 | 0.00 | 0.00 | 72 | 1010.3 |
| 20260506165207 | 55 | 13 | 6.0 | 12.0 | 0.00 | 0.00 | 0.00 | 72 | 1010.3 |
| 20260506164715 | 55 | 17 | 5.0 | 12.0 | 0.00 | 0.00 | 0.00 | 72 | 1010.3 |
| 20260506164210 | 55 | 338 | 5.0 | 12.0 | 0.00 | 0.00 | 0.00 | 72 | 1010.2 |
| 20260506163218 | 55 | 61 | 5.0 | 16.0 | 0.00 | 0.00 | 0.00 | 72 | 1010.2 |
| 20260506162717 | 55 | 29 | 6.0 | 16.0 | 0.00 | 0.00 | 0.00 | 72 | 1010.2 |
| 20260506162224 | 55 | 55 | 6.0 | 13.0 | 0.00 | 0.00 | 0.00 | 72 | 1010.2 |
| 20260506161713 | 55 | 335 | 7.0 | 13.0 | 0.00 | 0.00 | 0.00 | 72 | 1010.2 |
| 20260506161217 | 55 | 328 | 6.0 | 13.0 | 0.00 | 0.00 | 0.00 | 72 | 1010.2 |
| 20260506160714 | 55 | 5 | 5.0 | 13.0 | 0.00 | 0.00 | 0.00 | 71 | 1010.2 |
| 20260506160222 | 55 | 329 | 6.0 | 15.0 | 0.00 | 0.00 | 0.00 | 71 | 1010.2 |
| 20260506155717 | 55 | 348 | 8.0 | 16.0 | 0.00 | 0.00 | 0.00 | 71 | 1010.1 |
| 20260506154719 | 56 | 350 | 8.0 | 18.0 | 0.00 | 0.00 | 0.00 | 71 | 1010.1 |
| 20260506154218 | 56 | 334 | 9.0 | 18.0 | 0.00 | 0.00 | 0.00 | 71 | 1010.2 |
| 20260506153715 | 56 | 319 | 9.0 | 18.0 | 0.00 | 0.00 | 0.00 | 70 | 1010.2 |
| 20260506153216 | 56 | 349 | 6.0 | 15.0 | 0.00 | 0.00 | 0.00 | 70 | 1010.2 |
| 20260506152710 | 56 | 17 | 8.0 | 15.0 | 0.00 | 0.00 | 0.00 | 70 | 1010.2 |
| 20260506152206 | 56 | 5 | 9.0 | 15.0 | 0.00 | 0.00 | 0.00 | 69 | 1010.1 |
| 20260506151206 | 57 | 343 | 7.0 | 17.0 | 0.00 | 0.00 | 0.00 | 69 | 1010.0 |
| 20260506150731 | 57 | 343 | 7.0 | 17.0 | 0.00 | 0.00 | 0.00 | 69 | 1010.0 |
| 20260506150210 | 57 | 327 | 7.0 | 16.0 | 0.00 | 0.00 | 0.00 | 68 | 1010.0 |
| 20260506145713 | 58 | 327 | 6.0 | 16.0 | 0.00 | 0.00 | 0.00 | 68 | 1010.1 |
| 20260506145209 | 57 | 0 | 7.0 | 20.0 | 0.00 | 0.00 | 0.00 | 67 | 1010.0 |
| 20260506143713 | 57 | 341 | 6.0 | 17.0 | 0.00 | 0.00 | 0.00 | 68 | 1009.9 |
| 20260506143217 | 57 | 346 | 7.0 | 17.0 | 0.00 | 0.00 | 0.00 | 69 | 1009.9 |
| 20260506142706 | 58 | 338 | 6.0 | 17.0 | 0.00 | 0.00 | 0.00 | 67 | 1010.0 |
| 20260506142216 | 58 | 355 | 5.0 | 17.0 | 0.00 | 0.00 | 0.00 | 68 | 1010.0 |
| 20260506141217 | 58 | 0 | 7.0 | 17.0 | 0.00 | 0.00 | 0.00 | 68 | 1010.0 |
| 20260506140713 | 59 | 5 | 6.0 | 17.0 | 0.00 | 0.00 | 0.00 | 68 | 1010.0 |
| 20260506140212 | 58 | 307 | 8.0 | 21.0 | 0.00 | 0.00 | 0.00 | 69 | 1010.0 |
| 20260506135711 | 58 | 24 | 9.0 | 21.0 | 0.00 | 0.00 | 0.00 | 68 | 1010.0 |
| 20260506135210 | 58 | 19 | 8.0 | 21.0 | 0.00 | 0.00 | 0.00 | 69 | 1010.0 |
| 20260506134710 | 59 | 355 | 7.0 | 16.0 | 0.00 | 0.00 | 0.00 | 69 | 1009.9 |
| 20260506134212 | 58 | 322 | 7.0 | 16.0 | 0.00 | 0.00 | 0.00 | 70 | 1009.9 |
| 20260506133710 | 57 | 28 | 8.0 | 17.0 | 0.00 | 0.00 | 0.00 | 71 | 1009.9 |
| 20260506133212 | 57 | 333 | 7.0 | 17.0 | 0.00 | 0.00 | 0.00 | 72 | 1010.0 |
| 20260506132216 | 57 | 15 | 7.0 | 17.0 | 0.00 | 0.00 | 0.00 | 73 | 1009.9 |
| 20260506130712 | 57 | 12 | 6.0 | 16.0 | 0.00 | 0.00 | 0.00 | 74 | 1010.0 |
| 20260506130212 | 56 | 308 | 7.0 | 18.0 | 0.00 | 0.00 | 0.00 | 74 | 1009.9 |
| 20260506125705 | 56 | 340 | 8.0 | 18.0 | 0.00 | 0.00 | 0.00 | 74 | 1009.7 |
| 20260506125218 | 57 | 345 | 7.0 | 17.0 | 0.00 | 0.00 | 0.00 | 72 | 1009.8 |
| 20260506124214 | 57 | 344 | 7.0 | 17.0 | 0.00 | 0.00 | 0.00 | 73 | 1009.7 |
| 20260506123715 | 57 | 319 | 7.0 | 17.0 | 0.00 | 0.00 | 0.00 | 71 | 1009.7 |
| 20260506123214 | 58 | 0 | 7.0 | 15.0 | 0.00 | 0.00 | 0.00 | 69 | 1009.6 |
| 20260506122712 | 57 | 283 | 7.0 | 16.0 | 0.00 | 0.00 | 0.00 | 71 | 1009.6 |
| 20260506122206 | 57 | 326 | 7.0 | 16.0 | 0.00 | 0.00 | 0.00 | 70 | 1009.6 |
| 20260506121219 | 57 | 279 | 7.0 | 17.0 | 0.00 | 0.00 | 0.00 | 72 | 1009.7 |
| 20260506120716 | 56 | 340 | 8.0 | 17.0 | 0.00 | 0.00 | 0.00 | 72 | 1009.6 |
| 20260506120211 | 57 | 312 | 8.0 | 17.0 | 0.00 | 0.00 | 0.00 | 70 | 1009.5 |
| 20260506115711 | 57 | 324 | 7.0 | 16.0 | 0.00 | 0.00 | 0.00 | 70 | 1009.5 |
| 20260506115215 | 57 | 355 | 6.0 | 16.0 | 0.00 | 0.00 | 0.00 | 70 | 1009.6 |
| 20260506114712 | 56 | 5 | 7.0 | 16.0 | 0.00 | 0.00 | 0.00 | 69 | 1009.6 |
| 20260506114209 | 56 | 5 | 8.0 | 16.0 | 0.00 | 0.00 | 0.00 | 69 | 1009.6 |
| 20260506113717 | 56 | 346 | 6.0 | 14.0 | 0.00 | 0.00 | 0.00 | 69 | 1009.6 |
| 20260506112712 | 56 | 18 | 6.0 | 17.0 | 0.00 | 0.00 | 0.00 | 72 | 1009.5 |
| 20260506112219 | 56 | 346 | 7.0 | 17.0 | 0.00 | 0.00 | 0.00 | 71 | 1009.5 |
| 20260506111714 | 56 | 348 | 8.0 | 17.0 | 0.00 | 0.00 | 0.00 | 70 | 1009.5 |
| 20260506111207 | 57 | 28 | 7.0 | 17.0 | 0.00 | 0.00 | 0.00 | 69 | 1009.6 |
| 20260506110714 | 57 | 53 | 6.0 | 15.0 | 0.00 | 0.00 | 0.00 | 70 | 1009.6 |
| 20260506105711 | 57 | 30 | 7.0 | 15.0 | 0.00 | 0.00 | 0.00 | 71 | 1009.5 |
| 20260506105211 | 57 | 331 | 7.0 | 13.0 | 0.00 | 0.00 | 0.00 | 71 | 1009.5 |
| 20260506104719 | 57 | 11 | 7.0 | 17.0 | 0.00 | 0.00 | 0.00 | 71 | 1009.4 |
| 20260506104208 | 57 | 355 | 6.0 | 17.0 | 0.00 | 0.00 | 0.00 | 71 | 1009.5 |
| 20260506103712 | 57 | 355 | 6.0 | 19.0 | 0.00 | 0.00 | 0.00 | 72 | 1009.5 |
| 20260506103205 | 57 | 332 | 7.0 | 19.0 | 0.00 | 0.00 | 0.00 | 71 | 1009.5 |
| 20260506101706 | 58 | 0 | 7.0 | 14.0 | 0.00 | 0.00 | 0.00 | 70 | 1009.4 |
| 20260506101218 | 58 | 329 | 6.0 | 14.0 | 0.00 | 0.00 | 0.00 | 69 | 1009.4 |
| 20260506100706 | 58 | 15 | 6.0 | 14.0 | 0.00 | 0.00 | 0.00 | 68 | 1009.4 |
| 20260506095706 | 58 | 304 | 6.0 | 16.0 | 0.00 | 0.00 | 0.00 | 69 | 1009.3 |
| 20260506095219 | 57 | 355 | 7.0 | 16.0 | 0.00 | 0.00 | 0.00 | 70 | 1009.4 |
| 20260506094719 | 57 | 334 | 7.0 | 15.0 | 0.00 | 0.00 | 0.00 | 70 | 1009.4 |
| 20260506094206 | 57 | 319 | 6.0 | 14.0 | 0.00 | 0.00 | 0.00 | 70 | 1009.4 |
| 20260506093710 | 57 | 34 | 5.0 | 14.0 | 0.00 | 0.00 | 0.00 | 71 | 1009.4 |
| 20260506092717 | 57 | 347 | 6.0 | 16.0 | 0.00 | 0.00 | 0.00 | 72 | 1009.3 |
| 20260506092214 | 56 | 319 | 8.0 | 16.0 | 0.00 | 0.00 | 0.00 | 74 | 1009.3 |
| 20260506091717 | 56 | 347 | 8.0 | 16.0 | 0.00 | 0.00 | 0.00 | 73 | 1009.3 |
| 20260506091206 | 56 | 338 | 6.0 | 14.0 | 0.00 | 0.00 | 0.00 | 73 | 1009.3 |
| 20260506090714 | 56 | 346 | 6.0 | 14.0 | 0.00 | 0.00 | 0.00 | 73 | 1009.3 |
| 20260506090206 | 56 | 28 | 6.0 | 12.0 | 0.00 | 0.00 | 0.00 | 73 | 1009.3 |
| 20260506085710 | 56 | 355 | 6.0 | 12.0 | 0.00 | 0.00 | 0.00 | 73 | 1009.2 |
| 20260506085209 | 57 | 11 | 5.0 | 13.0 | 0.00 | 0.00 | 0.00 | 72 | 1009.2 |
| 20260506084720 | 56 | 38 | 5.0 | 18.0 | 0.00 | 0.00 | 0.00 | 74 | 1009.2 |
| 20260506084217 | 56 | 321 | 6.0 | 18.0 | 0.00 | 0.00 | 0.00 | 74 | 1009.1 |
| 20260506083708 | 56 | 345 | 6.0 | 18.0 | 0.00 | 0.00 | 0.00 | 74 | 1009.1 |
| 20260506083213 | 56 | 71 | 6.0 | 13.0 | 0.00 | 0.00 | 0.00 | 74 | 1009.0 |
| 20260506082716 | 55 | 340 | 7.0 | 15.0 | 0.00 | 0.00 | 0.00 | 76 | 1009.0 |
| 20260506082215 | 55 | 355 | 6.0 | 15.0 | 0.00 | 0.00 | 0.00 | 76 | 1009.1 |
| 20260506081219 | 55 | 18 | 6.0 | 13.0 | 0.00 | 0.00 | 0.00 | 79 | 1009.1 |
| 20260506080208 | 54 | 355 | 7.0 | 17.0 | 0.00 | 0.00 | 0.00 | 79 | 1009.1 |
| 20260506073217 | 53 | 0 | 8.0 | 16.0 | 0.00 | 0.00 | 0.00 | 80 | 1009.0 |
| 20260506072706 | 53 | 326 | 6.0 | 16.0 | 0.00 | 0.00 | 0.00 | 80 | 1009.0 |
| 20260506072209 | 53 | 315 | 6.0 | 16.0 | 0.00 | 0.00 | 0.00 | 80 | 1009.0 |
| 20260506071712 | 53 | 45 | 6.0 | 15.0 | 0.00 | 0.00 | 0.00 | 80 | 1009.0 |
| 20260506071216 | 53 | 19 | 6.0 | 15.0 | 0.00 | 0.00 | 0.00 | 80 | 1009.0 |
| 20260506070719 | 53 | 77 | 6.0 | 14.0 | 0.00 | 0.00 | 0.00 | 80 | 1009.0 |
| 20260506062218 | 52 | 5 | 5.0 | 14.0 | 0.00 | 0.00 | 0.00 | 81 | 1008.8 |
| 20260506061713 | 52 | 340 | 4.0 | 14.0 | 0.00 | 0.00 | 0.00 | 81 | 1008.8 |
| 20260506061218 | 52 | 344 | 4.0 | 12.0 | 0.00 | 0.00 | 0.00 | 81 | 1008.8 |
| 20260506060706 | 52 | 26 | 6.0 | 14.0 | 0.00 | 0.00 | 0.00 | 81 | 1008.7 |
| 20260506060212 | 51 | 299 | 6.0 | 14.0 | 0.00 | 0.00 | 0.00 | 81 | 1008.7 |
| 20260506051220 | 51 | 340 | 4.0 | 13.0 | 0.00 | 0.00 | 0.00 | 80 | 1008.7 |
| 20260506050708 | 51 | 26 | 4.0 | 13.0 | 0.00 | 0.00 | 0.00 | 80 | 1008.8 |
| 20260506050218 | 51 | 341 | 3.0 | 11.0 | 0.00 | 0.00 | 0.00 | 80 | 1008.8 |
| 20260506044709 | 51 | 70 | 4.0 | 13.0 | 0.00 | 0.00 | 0.00 | 79 | 1008.9 |
| 20260506044219 | 51 | 342 | 4.0 | 14.0 | 0.00 | 0.00 | 0.00 | 79 | 1008.9 |
| 20260506042715 | 51 | 11 | 6.0 | 16.0 | 0.00 | 0.00 | 0.00 | 79 | 1008.8 |
| 20260506042218 | 51 | 325 | 6.0 | 16.0 | 0.00 | 0.00 | 0.00 | 79 | 1008.8 |
| 20260506041719 | 51 | 349 | 5.0 | 15.0 | 0.00 | 0.00 | 0.00 | 79 | 1008.8 |
| 20260506041208 | 51 | 0 | 5.0 | 15.0 | 0.00 | 0.00 | 0.00 | 79 | 1008.9 |
| 20260506040708 | 51 | 38 | 4.0 | 15.0 | 0.00 | 0.00 | 0.00 | 79 | 1008.8 |
| 20260506035714 | 51 | 13 | 5.0 | 14.0 | 0.00 | 0.00 | 0.00 | 79 | 1008.9 |
| 20260506035215 | 51 | 30 | 5.0 | 14.0 | 0.00 | 0.00 | 0.00 | 79 | 1008.8 |
| 20260506034713 | 51 | 13 | 5.0 | 13.0 | 0.00 | 0.00 | 0.00 | 79 | 1008.8 |
| 20260506034208 | 51 | 313 | 5.0 | 13.0 | 0.00 | 0.00 | 0.00 | 79 | 1008.9 |
| 20260506032717 | 51 | 342 | 4.0 | 10.0 | 0.00 | 0.00 | 0.00 | 79 | 1009.0 |
| 20260506031705 | 51 | 315 | 4.0 | 12.0 | 0.00 | 0.00 | 0.00 | 79 | 1009.0 |
| 20260506030706 | 51 | 335 | 5.0 | 12.0 | 0.00 | 0.00 | 0.00 | 77 | 1009.1 |
| 20260506030213 | 51 | 67 | 4.0 | 12.0 | 0.00 | 0.00 | 0.00 | 77 | 1009.1 |
| 20260506025714 | 51 | 332 | 3.0 | 11.0 | 0.00 | 0.00 | 0.00 | 76 | 1009.3 |
| 20260506025217 | 51 | 331 | 4.0 | 12.0 | 0.00 | 0.00 | 0.00 | 76 | 1009.3 |
| 20260506024740 | 51 | 355 | 5.0 | 12.0 | 0.00 | 0.00 | 0.00 | 76 | 1009.3 |
| 20260506024211 | 51 | 17 | 4.0 | 11.0 | 0.00 | 0.00 | 0.00 | 76 | 1009.3 |
| 20260506023712 | 51 | 37 | 4.0 | 11.0 | 0.00 | 0.00 | 0.00 | 76 | 1009.4 |
| 20260506023219 | 51 | 336 | 4.0 | 11.0 | 0.00 | 0.00 | 0.00 | 76 | 1009.3 |
| 20260506022713 | 50 | 333 | 4.0 | 11.0 | 0.00 | 0.00 | 0.00 | 77 | 1009.4 |
| 20260506022213 | 50 | 55 | 3.0 | 11.0 | 0.00 | 0.00 | 0.00 | 78 | 1009.4 |
| 20260506020716 | 50 | 36 | 3.0 | 10.0 | 0.00 | 0.00 | 0.00 | 79 | 1009.5 |
| 20260506020214 | 50 | 19 | 2.0 | 10.0 | 0.00 | 0.00 | 0.00 | 79 | 1009.5 |
| 20260506015219 | 50 | 47 | 2.0 | 9.0 | 0.00 | 0.00 | 0.00 | 79 | 1009.5 |
| 20260506014718 | 50 | 15 | 2.0 | 10.0 | 0.00 | 0.00 | 0.00 | 79 | 1009.5 |
| 20260506013708 | 50 | 350 | 3.0 | 10.0 | 0.00 | 0.00 | 0.00 | 79 | 1009.5 |
| 20260506013207 | 50 | 30 | 3.0 | 12.0 | 0.00 | 0.00 | 0.00 | 79 | 1009.5 |
| 20260506012715 | 50 | 51 | 3.0 | 12.0 | 0.00 | 0.00 | 0.00 | 79 | 1009.5 |
| 20260506011719 | 50 | 41 | 4.0 | 15.0 | 0.00 | 0.00 | 0.00 | 79 | 1009.6 |
| 20260506011209 | 50 | 18 | 4.0 | 15.0 | 0.00 | 0.00 | 0.00 | 78 | 1009.5 |
| 20260506010207 | 50 | 341 | 4.0 | 13.0 | 0.00 | 0.00 | 0.00 | 78 | 1009.5 |
| 20260506005707 | 50 | 11 | 4.0 | 13.0 | 0.00 | 0.00 | 0.00 | 78 | 1009.6 |
| 20260506005211 | 50 | 18 | 3.0 | 11.0 | 0.00 | 0.00 | 0.00 | 78 | 1009.6 |
| 20260506004719 | 50 | 26 | 3.0 | 11.0 | 0.00 | 0.00 | 0.00 | 78 | 1009.7 |
| 20260506004209 | 50 | 11 | 3.0 | 8.0 | 0.00 | 0.00 | 0.00 | 78 | 1009.8 |
| 20260506003717 | 50 | 70 | 3.0 | 8.0 | 0.00 | 0.00 | 0.00 | 78 | 1009.7 |
| 20260506002717 | 50 | 0 | 3.0 | 9.0 | 0.00 | 0.00 | 0.00 | 77 | 1009.9 |
| 20260506002210 | 49 | 54 | 4.0 | 9.0 | 0.00 | 0.00 | 0.00 | 77 | 1009.9 |
| 20260506001715 | 49 | 25 | 3.0 | 9.0 | 0.00 | 0.00 | 0.00 | 77 | 1009.9 |
| 20260506001208 | 49 | 5 | 3.0 | 9.0 | 0.00 | 0.00 | 0.00 | 78 | 1010.0 |
| 20260506000710 | 49 | 53 | 3.0 | 9.0 | 0.00 | 0.00 | 0.00 | 78 | 1010.1 |
| 20260505235717 | 49 | 9 | 3.0 | 11.0 | 0.00 | 0.00 | 0.00 | 77 | 1010.1 |
| 20260505235211 | 49 | 338 | 3.0 | 11.0 | 0.00 | 0.00 | 0.00 | 77 | 1010.2 |
| 20260505234216 | 49 | 41 | 4.0 | 10.0 | 0.00 | 0.00 | 0.00 | 76 | 1010.2 |
| 20260505233718 | 49 | 0 | 3.0 | 9.0 | 0.00 | 0.00 | 0.00 | 76 | 1010.2 |
| 20260505233211 | 49 | 341 | 3.0 | 9.0 | 0.00 | 0.00 | 0.00 | 76 | 1010.3 |
| 20260505232714 | 49 | 19 | 4.0 | 9.0 | 0.00 | 0.00 | 0.00 | 76 | 1010.4 |
| 20260505232218 | 49 | 40 | 3.0 | 9.0 | 0.00 | 0.00 | 0.00 | 75 | 1010.4 |
| 20260505231711 | 49 | 32 | 3.0 | 9.0 | 0.00 | 0.00 | 0.00 | 75 | 1010.4 |
| 20260505231215 | 49 | 9 | 3.0 | 9.0 | 0.00 | 0.00 | 0.00 | 75 | 1010.4 |
| 20260505230212 | 49 | 5 | 4.0 | 11.0 | 0.00 | 0.00 | 0.00 | 75 | 1010.5 |
| 20260505225713 | 50 | 100 | 4.0 | 11.0 | 0.00 | 0.00 | 0.00 | 75 | 1010.5 |
| 20260505225205 | 50 | 325 | 4.0 | 11.0 | 0.00 | 0.00 | 0.00 | 75 | 1010.5 |
| 20260505224211 | 50 | 344 | 3.0 | 12.0 | 0.00 | 0.00 | 0.00 | 74 | 1010.4 |
| 20260505223712 | 50 | 38 | 3.0 | 12.0 | 0.00 | 0.00 | 0.00 | 74 | 1010.4 |
| 20260505223212 | 50 | 321 | 4.0 | 12.0 | 0.00 | 0.00 | 0.00 | 74 | 1010.5 |
| 20260505222707 | 50 | 0 | 4.0 | 12.0 | 0.00 | 0.00 | 0.00 | 74 | 1010.5 |
| 20260505221717 | 50 | 36 | 4.0 | 12.0 | 0.00 | 0.00 | 0.00 | 73 | 1010.6 |
| 20260505221219 | 50 | 336 | 4.0 | 10.0 | 0.00 | 0.00 | 0.00 | 73 | 1010.6 |
| 20260505220248 | 50 | 5 | 3.0 | 12.0 | 0.00 | 0.00 | 0.00 | 73 | 1010.7 |
| 20260505215712 | 50 | 355 | 3.0 | 12.0 | 0.00 | 0.00 | 0.00 | 73 | 1010.7 |
| 20260505214708 | 50 | 44 | 4.0 | 10.0 | 0.00 | 0.00 | 0.00 | 73 | 1010.8 |
| 20260505214207 | 50 | 51 | 3.0 | 10.0 | 0.00 | 0.00 | 0.00 | 73 | 1010.8 |
| 20260505213705 | 50 | 52 | 3.0 | 11.0 | 0.00 | 0.00 | 0.00 | 73 | 1010.9 |
| 20260505213215 | 50 | 43 | 4.0 | 11.0 | 0.00 | 0.00 | 0.00 | 73 | 1010.8 |
| 20260505212712 | 51 | 33 | 4.0 | 9.0 | 0.00 | 0.00 | 0.00 | 73 | 1010.8 |
| 20260505212207 | 51 | 345 | 3.0 | 9.0 | 0.00 | 0.00 | 0.00 | 73 | 1010.9 |
| 20260505211709 | 51 | 337 | 3.0 | 9.0 | 0.00 | 0.00 | 0.00 | 73 | 1010.8 |
| 20260505211213 | 51 | 0 | 3.0 | 9.0 | 0.00 | 0.00 | 0.00 | 73 | 1010.9 |
| 20260505210716 | 51 | 57 | 4.0 | 9.0 | 0.00 | 0.00 | 0.00 | 73 | 1010.9 |
| 20260505210214 | 51 | 79 | 3.0 | 9.0 | 0.00 | 0.00 | 0.00 | 73 | 1011.0 |
| 20260505205718 | 51 | 38 | 3.0 | 11.0 | 0.00 | 0.00 | 0.00 | 73 | 1011.0 |
| 20260505205216 | 51 | 29 | 3.0 | 11.0 | 0.00 | 0.00 | 0.00 | 73 | 1011.0 |
| 20260505204712 | 51 | 62 | 4.0 | 10.0 | 0.00 | 0.00 | 0.00 | 73 | 1011.0 |
| 20260505204208 | 51 | 48 | 3.0 | 12.0 | 0.00 | 0.00 | 0.00 | 73 | 1011.0 |
| 20260505203706 | 51 | 333 | 4.0 | 12.0 | 0.00 | 0.00 | 0.00 | 73 | 1010.9 |
| 20260505203210 | 51 | 31 | 4.0 | 12.0 | 0.00 | 0.00 | 0.00 | 73 | 1011.0 |
| 20260505202707 | 52 | 49 | 4.0 | 11.0 | 0.00 | 0.00 | 0.00 | 72 | 1011.0 |
| 20260505202219 | 52 | 57 | 5.0 | 11.0 | 0.00 | 0.00 | 0.00 | 72 | 1010.9 |
| 20260505201717 | 52 | 22 | 5.0 | 10.0 | 0.00 | 0.00 | 0.00 | 72 | 1010.9 |
| 20260505201214 | 52 | 66 | 4.0 | 10.0 | 0.00 | 0.00 | 0.00 | 72 | 1010.9 |
| 20260505200708 | 52 | 31 | 4.0 | 10.0 | 0.00 | 0.00 | 0.00 | 72 | 1010.9 |
| 20260505200212 | 52 | 55 | 4.0 | 11.0 | 0.00 | 0.00 | 0.00 | 72 | 1010.8 |
| 20260505195716 | 52 | 20 | 4.0 | 12.0 | 0.00 | 0.00 | 0.00 | 73 | 1010.8 |
| 20260505195216 | 52 | 38 | 5.0 | 14.0 | 0.00 | 0.00 | 0.00 | 73 | 1010.7 |
| 20260505194706 | 52 | 42 | 6.0 | 14.0 | 0.00 | 0.00 | 0.00 | 73 | 1010.7 |